Weather History for KPIE - September, 2013

Change the Weather History Date:

Thursday, September 12, 2013

  Actual Average Record
Temperature  
Mean Temperature 82 °F -  
Max Temperature 88 °F 88 °F 93 °F (1957)
Min Temperature 75 °F 75 °F 67 °F (1956)
Cooling Degree Days 16    
Growing Degree Days 32 (Base 50)    
Moisture  
Dew Point 73 °F    
Average Humidity 80    
Maximum Humidity 94    
Minimum Humidity 63    
Precipitation  
Precipitation 0.24 in - - ()
Sea Level Pressure  
Sea Level Pressure 29.96 in    
Wind  
Wind Speed 6 mph (ESE)    
Max Wind Speed 20 mph    
Max Gust Speed 30 mph    
Visibility 10 miles    
Events Rain , Thunderstorm    
Averages and records for this station are not official NWS values.
T = Trace of Precipitation, MM = Missing Value Source: NWS Daily Summary

Daily Weather History Graph

Daily Weather History Graph

Search for Another Location

Airport or City:

Trip Planner

Search our weather history database for the weather conditions in past years. The results will help you decide how hot, cold, wet, or windy it might be!

Date:

Astronomy

Sep. 12, 2013 Rise Set
Actual Time 7:14 AM EDT 7:38 PM EDT
Civil Twilight 6:51 AM EDT 8:02 PM EDT
Nautical Twilight 6:23 AM EDT 8:29 PM EDT
Astronomical Twilight 5:55 AM EDT 8:57 PM EDT
Moon 2:08 PM EDT (9/12) 12:07 AM EDT (9/12)
Length of Visible Light 13h 11m
Length of Day
12h 24m
Waxing Crescent, 50% of the Moon is Illuminated
Sep 12
Waxing Crescent
Sep 12
First Quarter
Sep 19
Full
Sep 26
Last Quarter
Oct 4
New

Hourly Weather History & Observations

Time (EDT) Temp. Heat Index Dew Point Humidity Pressure Visibility Wind Dir Wind Speed Gust Speed Precip Events Conditions
12:53 AM 79.0 °F - 72.0 °F 79% 30.02 in 10.0 mi East 5.8 mph - N/A   Clear
1:53 AM 79.0 °F - 73.9 °F 84% 30.01 in 10.0 mi ESE 4.6 mph - N/A   Partly Cloudy
3:53 AM 77.0 °F - 73.0 °F 88% 29.99 in 10.0 mi ESE 4.6 mph - N/A   Clear
4:53 AM 77.0 °F - 73.0 °F 88% 29.98 in 10.0 mi Calm Calm - N/A   Clear
5:53 AM 75.9 °F - 73.0 °F 91% 29.99 in 10.0 mi ESE 3.5 mph - N/A   Clear
6:53 AM 77.0 °F - 73.9 °F 90% 30.00 in 10.0 mi East 3.5 mph - N/A   Partly Cloudy
7:53 AM 78.1 °F - 75.0 °F 90% 30.01 in 10.0 mi ENE 5.8 mph - N/A   Partly Cloudy
8:10 AM 78.8 °F - 75.2 °F 89% 30.01 in 10.0 mi ENE 8.1 mph - N/A   Scattered Clouds
8:53 AM 80.1 °F 85.1 °F 75.0 °F 85% 30.02 in 10.0 mi East 6.9 mph - N/A   Partly Cloudy
9:53 AM 80.1 °F 85.1 °F 75.0 °F 85% 30.02 in 10.0 mi East 6.9 mph - N/A   Partly Cloudy
10:53 AM 82.9 °F 89.4 °F 73.9 °F 74% 30.02 in 10.0 mi East 4.6 mph - N/A   Partly Cloudy
11:53 AM 84.9 °F 91.4 °F 73.0 °F 67% 30.02 in 10.0 mi ESE 6.9 mph - N/A   Partly Cloudy
12:53 PM 86.0 °F 93.0 °F 73.0 °F 65% 30.00 in 10.0 mi Variable 4.6 mph - N/A   Scattered Clouds
1:53 PM 88.0 °F 96.5 °F 73.9 °F 63% 29.97 in 10.0 mi NE 5.8 mph - N/A   Scattered Clouds
2:53 PM 84.9 °F 92.1 °F 73.9 °F 69% 29.95 in 10.0 mi North 10.4 mph - N/A   Mostly Cloudy
3:04 PM 84.2 °F 92.3 °F 75.2 °F 74% 29.95 in 10.0 mi North 10.4 mph - N/A Thunderstorm Thunderstorm
3:32 PM 75.2 °F - 73.4 °F 94% 29.95 in 10.0 mi SSW 19.6 mph 29.9 mph 0.03 in Rain , Thunderstorm Light Thunderstorms and Rain
3:42 PM 75.2 °F - 73.4 °F 94% 29.95 in 10.0 mi South 12.7 mph - 0.15 in Rain , Thunderstorm Heavy Thunderstorms and Rain
3:53 PM 75.9 °F - 72.0 °F 87% 29.94 in 10.0 mi SSW 10.4 mph - 0.18 in Rain , Thunderstorm Light Thunderstorms and Rain
4:24 PM 80.6 °F 84.6 °F 71.6 °F 74% 29.92 in 10.0 mi SSW 5.8 mph - 0.06 in Rain Light Rain
4:53 PM 84.9 °F 91.4 °F 73.0 °F 67% 29.91 in 10.0 mi Calm Calm - 0.06 in   Partly Cloudy
5:53 PM 86.0 °F 93.0 °F 73.0 °F 65% 29.90 in 10.0 mi West 3.5 mph - N/A   Partly Cloudy
6:53 PM 84.9 °F 91.4 °F 73.0 °F 67% 29.91 in 10.0 mi NW 4.6 mph - N/A   Partly Cloudy
7:15 PM 84.2 °F 90.9 °F 73.4 °F 70% 29.92 in 10.0 mi WNW 4.6 mph - N/A Thunderstorm Partly Cloudy
7:45 PM 80.6 °F 84.6 °F 71.6 °F 74% 29.93 in 10.0 mi East 15.0 mph 23.0 mph N/A   Scattered Clouds
7:53 PM 79.0 °F - 72.0 °F 79% 29.94 in 10.0 mi East 11.5 mph 19.6 mph N/A   Mostly Cloudy
8:06 PM 78.8 °F - 73.4 °F 83% 29.94 in 10.0 mi East 8.1 mph - N/A Thunderstorm Thunderstorm
8:21 PM 78.8 °F - 71.6 °F 78% 29.94 in 10.0 mi East 8.1 mph - N/A   Mostly Cloudy
8:53 PM 77.0 °F - 71.1 °F 82% 29.95 in 10.0 mi ESE 9.2 mph - N/A   Partly Cloudy
9:53 PM 75.9 °F - 73.0 °F 91% 29.95 in 10.0 mi South 4.6 mph - N/A   Clear
10:53 PM 75.9 °F - 72.0 °F 87% 29.94 in 10.0 mi ESE 3.5 mph - N/A   Clear
11:53 PM 75.9 °F - 73.0 °F 91% 29.92 in 10.0 mi Calm Calm - N/A   Clear